GEESAT-5 02 (65551 NORAD) Tracking and Keplerian Element Data

This shows tracking and keplerian element data for the satellite.

Feedback or suggestion? Click here.




ElementValue
Catalog65551
NameGEESAT-5 02
Epoch Orbit1518
Epoch Day353.98362753
Epoch Year2025
RAAN150.3049
Inclination49.9853
Eccentricity0.0008454
Argument of Perigee357.756
Mean Anonmoly2.3339
Mean Motion14.83352045
Decay Rate1.511E-05
L11 65551U 25201B 25353.98362753 .00001511 00000+0 20975-3 0 9996
L22 65551 49.9853 150.3049 0008454 357.7560 2.3339 14.83352045 15188



Live tracking and technical data element details for GEESAT-5 02 (NORAD 65551). GEESAT-5 02 can be tracked NOW for your location showing map with azimuth and elevation plus other details from your city location.







IsCatalogInMostPopularTable: catalog: 65551, numindb: 5
Update: records affected: 1



GetName: 65551 GEESAT-5 02

Hit Count: updated at: Tue, 21 Apr 2026 18:54:47 GMT